Page, AZ

12:36 PM MST on January 18, 2017 (GMT -0700)
Page Municipal

Weather History for KPGA - October, 2013

Change the Weather History Date:

Thursday, October 3, 2013

  Actual Average Record
Temperature  
Mean Temperature 68 °F -  
Max Temperature 82 °F 79 °F 93 °F (1963)
Min Temperature 51 °F 53 °F 42 °F (1959)
Cooling Degree Days 3    
Growing Degree Days 18 (Base 50)    
Moisture  
Dew Point 28 °F    
Average Humidity 22    
Maximum Humidity 37    
Minimum Humidity 9    
Precipitation  
Precipitation 0.00 in - - ()
Sea Level Pressure  
Sea Level Pressure 29.67 in    
Wind  
Wind Speed 9 mph (SW)    
Max Wind Speed 17 mph    
Max Gust Speed 32 mph    
Visibility 10 miles    
Events      
Averages and records for this station are not official NWS values.
T = Trace of Precipitation, MM = Missing Value Source: NWS Daily Summary

Daily Weather History Graph

Daily Weather History Graph

Search for Another Location

Airport or City:

Trip Planner

Search our weather history database for the weather conditions in past years. The results will help you decide how hot, cold, wet, or windy it might be!

Date:

Astronomy

Oct. 03, 2013 Rise Set
Actual Time 6:23 AM MST 6:05 PM MST
Civil Twilight 5:57 AM MST 6:31 PM MST
Nautical Twilight 5:27 AM MST 7:01 PM MST
Astronomical Twilight 4:56 AM MST 7:31 PM MST
Moon 5:01 AM MST (10/3) 5:15 PM MST (10/3)
Length of Visible Light 12h 34m
Length of Day
11h 42m
Waning Crescent, 2% of the Moon is Illuminated
Oct 3
Waning Crescent
Oct 4
New
Oct 11
First Quarter
Oct 18
Full
Oct 26
Last Quarter

Hourly Weather History & Observations

Time (MST) Temp. Dew Point Humidity Pressure Visibility Wind Dir Wind Speed Gust Speed Precip Events Conditions
12:53 AM 66.0 °F 27.0 °F 23% 29.71 in 10.0 mi SSW 9.2 mph - N/A   Clear
1:53 AM 66.9 °F 30.0 °F 25% 29.70 in 10.0 mi SSW 4.6 mph - N/A   Clear
2:53 AM 64.9 °F 30.9 °F 28% 29.69 in 10.0 mi South 3.5 mph - N/A   Clear
3:53 AM 68.0 °F 33.1 °F 27% 29.67 in 10.0 mi SW 6.9 mph - N/A   Clear
4:53 AM 66.0 °F 35.1 °F 32% 29.67 in 10.0 mi SSW 10.4 mph - N/A   Clear
5:53 AM 64.0 °F 37.0 °F 37% 29.68 in 10.0 mi SSW 8.1 mph - N/A   Clear
6:53 AM 64.0 °F 35.1 °F 34% 29.69 in 10.0 mi South 10.4 mph 16.1 mph N/A   Clear
7:53 AM 66.0 °F 37.0 °F 34% 29.70 in 10.0 mi Variable 3.5 mph - N/A   Clear
8:53 AM 71.1 °F 37.0 °F 29% 29.68 in 10.0 mi South 11.5 mph 19.6 mph N/A   Clear
9:53 AM 73.0 °F 37.0 °F 27% 29.66 in 10.0 mi SW 8.1 mph 19.6 mph N/A   Clear
10:53 AM 75.0 °F 33.1 °F 22% 29.63 in 10.0 mi SSW 9.2 mph 21.9 mph N/A   Clear
11:53 AM 77.0 °F 30.9 °F 19% 29.60 in 10.0 mi SW 12.7 mph 21.9 mph N/A   Clear
12:53 PM 78.1 °F 28.9 °F 17% 29.56 in 10.0 mi South 13.8 mph 24.2 mph N/A   Clear
1:53 PM 80.1 °F 28.9 °F 15% 29.52 in 10.0 mi SW 11.5 mph 24.2 mph N/A   Clear
2:53 PM 81.0 °F 19.9 °F 10% 29.50 in 10.0 mi SW 12.7 mph 25.3 mph N/A   Partly Cloudy
3:53 PM 79.0 °F 25.0 °F 14% 29.49 in 10.0 mi West 12.7 mph 25.3 mph N/A   Clear
4:53 PM 75.9 °F 28.0 °F 17% 29.52 in 10.0 mi WNW 17.3 mph 31.1 mph N/A   Clear
5:53 PM 72.0 °F 28.0 °F 20% 29.56 in 10.0 mi West 16.1 mph 32.2 mph N/A   Clear
6:53 PM 61.0 °F 23.0 °F 23% 29.70 in 10.0 mi NW 15.0 mph 28.8 mph N/A   Clear
7:53 PM 55.9 °F 24.1 °F 29% 29.79 in 10.0 mi WNW 13.8 mph 25.3 mph N/A   Scattered Clouds
9:53 PM 55.0 °F 17.1 °F 23% 29.84 in 10.0 mi WNW 9.2 mph - N/A   Overcast
10:53 PM 54.0 °F 14.0 °F 21% 29.85 in 10.0 mi WNW 5.8 mph 17.3 mph N/A   Mostly Cloudy
11:53 PM 51.1 °F 14.0 °F 23% 29.88 in 10.0 mi WNW 5.8 mph - N/A   Clear